User: anonymous   Login
Location: Caltech
(34.1382°N, 118.1253°W)
Time: 17:27:41
(UTC-07:00)
Language:

SL-16 R/B - Orbit

View from above orbital plane
View from above orbital plane
View from above satellite
View from above satellite

Ground track
Ground track

The orbit data is extracted from the following two-line orbital elements,

1 28353U 04021B   14304.44836510  .00000176  00000-0  11719-3 0  8738
2 28353 071.0018 291.0652 0006400 236.0864 236.8292 14.14099902536481
Epoch (UTC): 31 October 2014 10:45:38
Eccentricity: 0.0006400
inclination: 71.0018°
perigee height: 841 km
apogee height: 850 km
right ascension of ascending node: 291.0652°
argument of perigee: 236.0864°
revolutions per day: 14.14099902
mean anomaly at epoch: 236.8292°
orbit number at epoch: 53648

The dashed part of the orbit path shows where the satellite is in the earth's shadow,  

DLR